When you browse on this site, cookies collect data to enhance your experience and personalize the content and advertising you see.
Visit our Privacy Policy to learn more. By continuing to use the site, you agree to this use of cookies and data.
  • In Lithuania
  • List of Countries
  • For 7 days
  • Water Temperature
  • Weather Map
  • Weather Widgets
  • user-avatar
    Login

    Hourly Weather Mérida

    Today, 19 August, Monday

    Time Temperature Precipitation Wind Pressure Humidity
    00:00 +14°C° 0 mm 2 mps 593 mmHg 83%
    01:00 +14°C° 0 mm 2 mps 592 mmHg 83%
    02:00 +14°C° 0 mm 2 mps 592 mmHg 82%
    03:00 +14°C° 0 mm 2 mps 592 mmHg 80%
    04:00 +13°C° 0 mm 2 mps 592 mmHg 79%
    05:00 +15°C° 0 mm 2 mps 593 mmHg 78%
    06:00 +16°C° 0 mm 2 mps 593 mmHg 78%
    07:00 +17°C° 0 mm 2 mps 594 mmHg 77%
    08:00 +18°C° 0.1 mm 2 mps 595 mmHg 74%
    09:00 +19°C° 0.1 mm 2 mps 596 mmHg 72%
    10:00 +20°C° 0.1 mm 2 mps 596 mmHg 69%
    11:00 +20°C° 0.5 mm 2 mps 596 mmHg 71%
    12:00 +20°C° 0.5 mm 2 mps 595 mmHg 72%
    13:00 +20°C° 0.5 mm 2 mps 595 mmHg 73%
    14:00 +20°C° 0.6 mm 2 mps 594 mmHg 76%
    15:00 +20°C° 0.6 mm 2 mps 594 mmHg 78%
    16:00 +21°C° 0.6 mm 1 mps 593 mmHg 80%
    17:00 +19°C° 0.3 mm 1 mps 593 mmHg 84%
    18:00 +17°C° 0.3 mm 2 mps 592 mmHg 87%
    19:00 +15°C° 0.3 mm 2 mps 592 mmHg 90%
    20:00 +15°C° 0.1 mm 2 mps 592 mmHg 88%
    21:00 +15°C° 0.1 mm 2 mps 593 mmHg 87%
    22:00 +14°C° 0.1 mm 2 mps 593 mmHg 85%
    23:00 +14°C° 0 mm 2 mps 593 mmHg 86%

    Tomorrow, 20 August, Tuesday

    Time Temperature Precipitation Wind Pressure Humidity
    00:00 +14°C° 0 mm 2 mps 592 mmHg 86%
    01:00 +14°C° 0 mm 2 mps 592 mmHg 87%
    02:00 +14°C° 0 mm 2 mps 592 mmHg 86%
    03:00 +14°C° 0 mm 2 mps 592 mmHg 84%
    04:00 +14°C° 0 mm 2 mps 592 mmHg 83%
    05:00 +15°C° 0 mm 2 mps 593 mmHg 81%
    06:00 +16°C° 0 mm 2 mps 594 mmHg 78%
    07:00 +17°C° 0 mm 2 mps 594 mmHg 76%
    08:00 +18°C° 0.1 mm 2 mps 595 mmHg 72%
    09:00 +20°C° 0.1 mm 2 mps 596 mmHg 69%
    10:00 +21°C° 0.1 mm 2 mps 597 mmHg 65%
    11:00 +21°C° 1.1 mm 2 mps 596 mmHg 72%
    12:00 +20°C° 1.1 mm 2 mps 595 mmHg 78%
    13:00 +20°C° 1.1 mm 1 mps 595 mmHg 85%
    14:00 +20°C° 0.8 mm 1 mps 594 mmHg 84%
    15:00 +20°C° 0.8 mm 1 mps 594 mmHg 84%
    16:00 +20°C° 0.8 mm 1 mps 594 mmHg 83%
    17:00 +19°C° 0.4 mm 1 mps 593 mmHg 85%
    18:00 +17°C° 0.4 mm 2 mps 593 mmHg 88%
    19:00 +16°C° 0.4 mm 2 mps 593 mmHg 90%
    20:00 +15°C° 0 mm 2 mps 593 mmHg 90%
    21:00 +15°C° 0 mm 2 mps 593 mmHg 89%
    22:00 +14°C° 0 mm 2 mps 593 mmHg 88%
    23:00 +14°C° 0 mm 2 mps 593 mmHg 87%

    Day after tomorrow, 21 August, Wednesday

    Time Temperature Precipitation Wind Pressure Humidity
    00:00 +14°C° 0 mm 2 mps 592 mmHg 87%
    01:00 +14°C° 0 mm 2 mps 592 mmHg 86%
    02:00 +14°C° 0 mm 2 mps 592 mmHg 87%
    03:00 +14°C° 0 mm 2 mps 592 mmHg 87%
    04:00 +14°C° 0 mm 2 mps 592 mmHg 88%
    05:00 +15°C° 0 mm 2 mps 593 mmHg 86%
    06:00 +16°C° 0 mm 2 mps 594 mmHg 84%
    07:00 +17°C° 0 mm 2 mps 595 mmHg 82%
    08:00 +18°C° 0.2 mm 2 mps 595 mmHg 78%
    09:00 +19°C° 0.2 mm 2 mps 596 mmHg 75%
    10:00 +21°C° 0.2 mm 2 mps 597 mmHg 71%
    11:00 +20°C° 1 mm 2 mps 596 mmHg 74%
    12:00 +20°C° 1 mm 2 mps 595 mmHg 77%
    13:00 +20°C° 1 mm 2 mps 594 mmHg 81%
    14:00 +19°C° 0.9 mm 2 mps 594 mmHg 81%
    15:00 +20°C° 0.9 mm 1 mps 593 mmHg 82%
    16:00 +20°C° 0.9 mm 1 mps 593 mmHg 82%
    17:00 +19°C° 0.3 mm 1 mps 593 mmHg 86%
    18:00 +16°C° 0.3 mm 1 mps 592 mmHg 90%
    19:00 +15°C° 0.3 mm 1 mps 592 mmHg 93%
    20:00 +15°C° 0 mm 1 mps 592 mmHg 92%
    21:00 +15°C° 0 mm 1 mps 593 mmHg 90%
    22:00 +15°C° 0 mm 1 mps 593 mmHg 88%
    23:00 +14°C° 0 mm 1 mps 593 mmHg 87%

    22 August, Thursday

    Time Temperature Precipitation Wind Pressure Humidity
    00:00 +14°C° 0 mm 1 mps 592 mmHg 87%
    01:00 +14°C° 0 mm 1 mps 592 mmHg 86%
    02:00 +14°C° 0 mm 1 mps 592 mmHg 86%
    03:00 +14°C° 0 mm 2 mps 592 mmHg 85%
    04:00 +13°C° 0 mm 2 mps 592 mmHg 84%
    05:00 +14°C° 0 mm 2 mps 593 mmHg 81%
    06:00 +16°C° 0 mm 2 mps 594 mmHg 78%
    07:00 +17°C° 0 mm 2 mps 595 mmHg 75%
    08:00 +18°C° 0 mm 2 mps 595 mmHg 71%
    09:00 +20°C° 0 mm 2 mps 596 mmHg 67%
    10:00 +21°C° 0 mm 2 mps 597 mmHg 63%
    11:00 +21°C° 0.6 mm 2 mps 596 mmHg 67%
    12:00 +21°C° 0.6 mm 2 mps 595 mmHg 71%
    13:00 +21°C° 0.6 mm 2 mps 595 mmHg 75%
    14:00 +20°C° 1.2 mm 2 mps 594 mmHg 78%
    15:00 +21°C° 1.2 mm 1 mps 594 mmHg 81%
    16:00 +20°C° 1.2 mm 1 mps 593 mmHg 84%
    17:00 +19°C° 0.6 mm 1 mps 593 mmHg 87%
    18:00 +18°C° 0.6 mm 1 mps 593 mmHg 90%
    19:00 +16°C° 0.6 mm 1 mps 593 mmHg 93%
    20:00 +16°C° 0.1 mm 1 mps 593 mmHg 92%
    21:00 +16°C° 0.1 mm 1 mps 593 mmHg 91%
    22:00 +16°C° 0.1 mm 1 mps 594 mmHg 89%
    23:00 +15°C° 0.2 mm 1 mps 593 mmHg 89%

    23 August, Friday

    Time Temperature Precipitation Wind Pressure Humidity
    00:00 +15°C° 0.2 mm 1 mps 593 mmHg 89%
    01:00 +15°C° 0.2 mm 2 mps 593 mmHg 89%
    02:00 +15°C° 0.2 mm 2 mps 593 mmHg 88%
    03:00 +15°C° 0.2 mm 2 mps 592 mmHg 88%
    04:00 +15°C° 0.2 mm 1 mps 592 mmHg 87%
    05:00 +15°C° 0 mm 2 mps 593 mmHg 86%
    06:00 +16°C° 0 mm 2 mps 594 mmHg 86%
    07:00 +17°C° 0 mm 2 mps 594 mmHg 85%
    08:00 +18°C° 0.2 mm 2 mps 595 mmHg 81%
    09:00 +19°C° 0.2 mm 2 mps 595 mmHg 77%
    10:00 +21°C° 0.2 mm 2 mps 596 mmHg 74%
    11:00 +20°C° 1 mm 2 mps 595 mmHg 77%
    12:00 +20°C° 1 mm 2 mps 595 mmHg 80%
    13:00 +20°C° 1 mm 2 mps 594 mmHg 83%
    14:00 +19°C° 1.5 mm 2 mps 594 mmHg 85%
    15:00 +19°C° 1.5 mm 2 mps 593 mmHg 86%
    16:00 +19°C° 1.5 mm 1 mps 593 mmHg 88%
    17:00 +18°C° 1.4 mm 1 mps 593 mmHg 89%
    18:00 +18°C° 1.4 mm 1 mps 593 mmHg 91%
    19:00 +16°C° 1.4 mm 2 mps 593 mmHg 93%
    20:00 +16°C° 0.3 mm 1 mps 593 mmHg 92%
    21:00 +16°C° 0.3 mm 1 mps 594 mmHg 92%
    22:00 +16°C° 0.3 mm 1 mps 594 mmHg 91%
    23:00 +16°C° 0 mm 1 mps 593 mmHg 91%

    24 August, Saturday

    Time Temperature Precipitation Wind Pressure Humidity
    00:00 +15°C° 0 mm 2 mps 593 mmHg 90%
    01:00 +15°C° 0 mm 2 mps 592 mmHg 90%
    02:00 +15°C° 0 mm 2 mps 592 mmHg 90%
    03:00 +15°C° 0 mm 2 mps 592 mmHg 89%
    04:00 +14°C° 0 mm 2 mps 592 mmHg 89%
    05:00 +15°C° 0.1 mm 2 mps 593 mmHg 88%
    06:00 +16°C° 0.1 mm 2 mps 593 mmHg 87%
    07:00 +16°C° 0.1 mm 2 mps 594 mmHg 85%
    08:00 +17°C° 0.1 mm 2 mps 594 mmHg 82%
    09:00 +18°C° 0.1 mm 2 mps 595 mmHg 79%
    10:00 +19°C° 0.1 mm 2 mps 595 mmHg 76%
    11:00 +19°C° 0.4 mm 2 mps 595 mmHg 74%
    12:00 +20°C° 0.4 mm 2 mps 595 mmHg 72%
    13:00 +20°C° 0.4 mm 2 mps 594 mmHg 70%
    14:00 +20°C° 0.7 mm 2 mps 594 mmHg 73%
    15:00 +21°C° 0.7 mm 1 mps 594 mmHg 75%
    16:00 +21°C° 0.7 mm 1 mps 593 mmHg 78%
    17:00 +19°C° 0.4 mm 1 mps 593 mmHg 82%
    18:00 +18°C° 0.4 mm 1 mps 592 mmHg 87%
    19:00 +15°C° 0.4 mm 1 mps 592 mmHg 91%
    20:00 +15°C° 0.1 mm 1 mps 592 mmHg 90%
    21:00 +14°C° 0.1 mm 1 mps 592 mmHg 89%
    22:00 +14°C° 0.1 mm 2 mps 592 mmHg 88%
    23:00 +14°C° 0 mm 2 mps 592 mmHg 87%
    Show more